Location: Plymouth Village
(34.0436°N, 117.1717°W)
Time: 04:08:24
(UTC+00:00)

Cosmos 1484 Rocket - Pass Details

Date: 10 September 2024
Orbit: 473 x 510 km, 97.6° (Epoch: 09 October)

Event Time Altitude Azimuth Distance (km) Brightness Sun altitude
Rises 12:34:06 0° 7° (N) 2,616 6.6 -12.0°
Reaches altitude 10° 12:36:12 10° 3° (N) 1,732 5.6 -11.6°
Maximum altitude 12:39:52 58° 284° (WNW) 602 2.7 -10.8°
Drops below altitude 10° 12:43:33 10° 205° (SSW) 1,734 5.0 -10.1°
Sets 12:45:40 0° 201° (SSW) 2,619 6.0 -9.7°
